Regional Weather Roundup
Issued by NWS Newport/Morehead, NC

Current Version | Previous Version | Graphics & Text | Print | Product List | Glossary Off
Versions: 1 2 3 4 5 6 7 8 9 10 11 12 13 14 15 16 17 18 19 20 21 22 23 24 25 26 27 28 29 30 31 32 33 34 35 36 37 38 39 40 41 42 43 44 45 46 47 48 49 50

000
ASUS42 KMHX 280110
RWRMHX
WEATHER ROUNDUP FOR EASTERN NORTH CAROLINA
NATIONAL WEATHER SERVICE NEWPORT/MOREHEAD CITY NC
800 PM EST THU NOV 27 2014

NOTE: "FAIR" INDICATES FEW OR NO CLOUDS BELOW 12,000 FEET
WITH NO SIGNIFICANT WEATHER AND/OR OBSTRUCTIONS TO VISIBILITY

NCZ015>017-031-032-045>047-102-103-280200-
NORTH COAST

CITY           SKY/WX    TMP DP  RH WIND       PRES   REMARKS
EDENTON        PTCLDY    41  39  93 NW6       30.15R
ELIZABETH CITY CLOUDY    45  39  79 NW8       30.14R
KITTY HAWK     LGT RAIN  43  40  89 NW8       30.10R
MANTEO         MOCLDY    43  39  86 N16       30.12R

$$

NCZ045>047-081-094-103-104-280200-
CENTRAL COAST

CITY           SKY/WX    TMP DP  RH WIND       PRES   REMARKS
FRISCO         PTCLDY    44  39  82 NW13G21   30.11R
SWANQUARTER      N/A     41 N/A N/A NW7       30.09S

$$

NCZ095-097-098-100-101-280200-
SOUTHERN COAST

CITY           SKY/WX    TMP DP  RH WIND       PRES   REMARKS
BEAUFORT       CLEAR     44  40  85 NW13      30.16R
CEDAR ISLAND     N/A     46 N/A N/A NW15G25   30.18R
JACKSONVILLE   CLEAR     42  37  82 NW8       30.18R
PINEY ISLAND   CLEAR     47  38  71 NW12      30.14R
WILMINGTON     CLEAR     43  37  79 NW5       30.19R


$$

NCZ011>013-027>030-043-044-078>080-089-090>093-098-280200-
COASTAL PLAIN

CITY           SKY/WX    TMP DP  RH WIND       PRES   REMARKS
AHOSKIE        CLOUDY    40  37  90 CALM      30.17R
CLINTON        PTCLDY    38  38  99 CALM      30.21R
ELIZABETHTOWN  PTCLDY    42  37  84 CALM      30.19S
GOLDSBORO      CLOUDY    44  41  92 CALM      30.18R
GREENVILLE     CLEAR     41  37  87 CALM      30.19R
HAVELOCK       CLEAR     43  38  82 NW8       30.17R
KENANSVILLE    CLEAR     41  37  85 W3        30.20R
KINSTON        PTCLDY    39  37  93 CALM      30.19R
NEW BERN       CLEAR     44  37  76 W6        30.17R
RICHLANDS      CLEAR     41  36  81 CALM      30.19R
ROCKY MOUNT    CLEAR     40  34  79 NW8       30.19R
WASHINGTON     CLEAR     40  37  90 CALM      30.16R
WHITEVILLE     CLEAR     40  38  92 CALM      30.20R

$$

AMZ130-135-150-152-154-156-158-170-250-252-270-ANZ085-086-088-633-658-670-280200-
MARINE OBSERVATIONS

STATION/POSITION TIME  TEMP    WIND        PRES    WAVE   SWELL
                       AIR SEA DIR/SP/G            HT/PER HT/PER
                 (UTC) (F)     (DEG/KT/KT) (MB)    (FT/S) (FT/S)
CHESAPEAKE LIGHT 0000   44     340/ 20/ 23 1019.6
64 E VA BEACH    0100   49 64  340/ 21/ 27 1017.4    6/ 5   3/ 9
DUCK             0100   45 54  330/ 19/ 23 1018.6
2 E DUCK         0100      54                N/A     4/ 8   2/14
10 NE DUCK       0000      57                N/A     6/ 5   2/11
OREGON INLET     0100   45 56  310/ 16/ 20 1019.1
13E OREGON INLT  0100      60                N/A     6/ 8   2/11
HATTERAS CG      0100   47 59  330/ 22/ 26 1019.8
DIAMOND BUOY     0100   50     320/ 21/ 27 1017.9    7/ 5   2/ 9
17 S OCRACOKE    NOT AVBL
CAPE LOOKOUT     0000   47     330/ 18/ 21 1020.0
BEAUFORT LAB     0100   45 57  330/  8/ 12 1019.9
30 SE NEW RIVER  0100   51 66  330/ 21/ 25 1021.0    7/ 6   2/ 9
5 SE WRIGHTSVLE  0000   46 59  320/ 17/ 23 1021.2
225 S CAPE HAT   0025   63 73  300/ 23/ 29 1018.0   12/ 8   2/14
41 SE CHARLESTON 0100   56 72  330/ 21/ 29 1022.1    6/ 5   2/10

$$


USA.gov is the U.S. government's official web portal to all federal, state and local government web resources and services.